GW3160 Weather Reports


time (UTC)temp
C
wind
direction
speed
KPH
gust
KPH
rain 1hr
cm
rain 24hr
cm
rain mn
cm
humidity
%
barometer
mb
20260507211606 18 61 1.6 3.2 0.00 0.00 0.00 35 1005.9
20260507211101 18 152 4.8 4.8 0.00 0.00 0.00 35 1006.0
20260507210559 18 126 0.0 1.6 0.00 0.00 0.00 38 1005.9
20260507210056 18 104 1.6 1.6 0.00 0.00 0.00 37 1006.0
20260507205552 18 135 1.6 1.6 0.00 0.00 0.00 35 1005.9
20260507205049 18 208 1.6 3.2 0.00 0.00 0.00 37 1006.1
20260507204545 18 190 1.6 3.2 0.00 0.00 0.00 36 1006.1
20260507204043 18 203 3.2 4.8 0.00 0.00 0.00 36 1006.0
20260507203540 19 258 8.0 9.7 0.00 0.00 0.00 36 1006.0
20260507203038 18 19 1.6 3.2 0.00 0.00 0.00 38 1006.1
20260507202533 18 134 3.2 3.2 0.00 0.00 0.00 35 1006.1
20260507202030 18 114 3.2 3.2 0.00 0.00 0.00 39 1006.0
20260507201525 18 119 3.2 4.8 0.00 0.00 0.00 37 1006.0
20260507201022 20 205 1.6 3.2 0.00 0.00 0.00 36 1006.1
20260507200517 19 147 0.0 1.6 0.00 0.00 0.00 34 1006.1
20260507200014 20 268 4.8 6.4 0.00 0.00 0.00 33 1006.2
20260507195511 20 272 1.6 1.6 0.00 0.00 0.00 33 1006.1
20260507195009 18 224 1.6 3.2 0.00 0.00 0.00 39 1006.3
20260507194505 18 68 0.0 0.0 0.00 0.00 0.00 35 1006.3
20260507194001 19 150 0.0 1.6 0.00 0.00 0.00 37 1006.2
20260507193458 17 126 0.0 0.0 0.00 0.00 0.00 42 1006.4
20260507192954 17 149 1.6 1.6 0.00 0.00 0.00 39 1006.2
20260507192450 20 248 6.4 6.4 0.00 0.00 0.00 34 1006.5
20260507191948 18 24 1.6 1.6 0.00 0.00 0.00 38 1006.4
20260507191443 17 129 0.0 1.6 0.00 0.00 0.00 38 1006.5
20260507190940 17 99 1.6 1.6 0.00 0.00 0.00 43 1006.6
20260507190438 17 96 0.0 0.0 0.00 0.00 0.00 40 1006.5
20260507185937 20 96 4.8 4.8 0.00 0.00 0.00 37 1006.6
20260507185434 18 96 3.2 4.8 0.00 0.00 0.00 37 1006.8
20260507184930 18 154 1.6 1.6 0.00 0.00 0.00 37 1006.8
20260507184428 20 182 1.6 1.6 0.00 0.00 0.00 38 1007.0
20260507183926 20 310 3.2 4.8 0.00 0.00 0.00 38 1007.0
20260507183422 20 16 1.6 1.6 0.00 0.00 0.00 41 1006.9
20260507182920 20 178 1.6 1.6 0.00 0.00 0.00 40 1006.9
20260507182415 19 71 3.2 3.2 0.00 0.00 0.00 42 1006.8
20260507181912 20 174 1.6 3.2 0.00 0.00 0.00 40 1006.9
20260507181408 20 236 3.2 4.8 0.00 0.00 0.00 40 1007.0
20260507180905 20 281 4.8 9.7 0.00 0.00 0.00 36 1007.1
20260507180402 20 236 1.6 1.6 0.00 0.00 0.00 39 1007.1
20260507175858 20 123 1.6 1.6 0.00 0.00 0.00 39 1007.2
20260507175354 18 238 1.6 1.6 0.00 0.00 0.00 40 1007.4
20260507174852 17 68 3.2 3.2 0.00 0.00 0.00 43 1007.4
20260507174349 17 98 1.6 1.6 0.00 0.00 0.00 45 1007.4
20260507173847 18 97 1.6 3.2 0.00 0.00 0.00 43 1007.7
20260507173344 18 32 3.2 3.2 0.00 0.00 0.00 43 1007.9
20260507172840 18 64 3.2 4.8 0.00 0.00 0.00 42 1008.0
20260507172337 18 76 3.2 3.2 0.00 0.00 0.00 45 1008.2
20260507171832 17 94 3.2 3.2 0.00 0.00 0.00 44 1008.0
20260507171330 17 20 3.2 3.2 0.00 0.00 0.00 42 1008.0
20260507170827 18 77 8.0 11.3 0.00 0.00 0.00 42 1008.5
20260507170323 17 8 3.2 4.8 0.00 0.00 0.00 44 1008.2
20260507165819 18 1 3.2 3.2 0.00 0.00 0.00 41 1008.5
20260507165315 17 38 3.2 4.8 0.00 0.00 0.00 43 1008.4
20260507164811 18 26 3.2 3.2 0.00 0.00 0.00 43 1008.3
20260507164309 18 112 1.6 1.6 0.00 0.00 0.00 41 1008.5
20260507163806 17 209 0.0 1.6 0.00 0.00 0.00 46 1008.8
20260507163303 16 335 4.8 6.4 0.00 0.00 0.00 47 1008.9
20260507162759 16 115 1.6 3.2 0.00 0.00 0.00 46 1008.7
20260507162255 17 111 1.6 3.2 0.00 0.00 0.00 46 1009.1
20260507161752 16 122 4.8 4.8 0.00 0.00 0.00 46 1009.1
20260507161249 17 84 0.0 0.0 0.00 0.00 0.00 47 1008.8
20260507160745 16 122 4.8 4.8 0.00 0.00 0.00 46 1009.0
20260507160241 15 199 1.6 3.2 0.00 0.00 0.00 46 1009.2
20260507155737 16 116 1.6 1.6 0.00 0.00 0.00 46 1009.3
20260507155233 15 133 1.6 3.2 0.00 0.00 0.00 46 1009.2
20260507154730 15 118 6.4 6.4 0.00 0.00 0.00 47 1009.5
20260507154228 15 87 6.4 6.4 0.00 0.00 0.00 47 1009.2
20260507153724 15 24 1.6 1.6 0.00 0.00 0.00 45 1009.5
20260507153221 15 116 0.0 1.6 0.00 0.00 0.00 49 1009.4
20260507152717 16 227 1.6 1.6 0.00 0.00 0.00 47 1009.4
20260507152213 15 82 1.6 3.2 0.00 0.00 0.00 46 1009.7
20260507151709 15 147 3.2 4.8 0.00 0.00 0.00 46 1009.8
20260507151206 14 144 1.6 3.2 0.00 0.00 0.00 47 1009.6
20260507150703 13 286 6.4 6.4 0.00 0.00 0.00 49 1009.8
20260507150200 13 260 1.6 3.2 0.00 0.00 0.00 50 1010.1
20260507145656 13 127 1.6 1.6 0.00 0.00 0.00 54 1010.0
20260507145153 12 78 0.0 0.0 0.00 0.00 0.00 51 1010.2
20260507144649 13 331 4.8 4.8 0.00 0.00 0.00 53 1010.5
20260507144148 12 178 3.2 3.2 0.00 0.00 0.00 52 1010.5
20260507143644 12 89 1.6 1.6 0.00 0.00 0.00 54 1010.5
20260507143141 12 103 4.8 4.8 0.00 0.00 0.00 52 1010.7
20260507142636 12 130 1.6 1.6 0.00 0.00 0.00 56 1010.5
20260507142133 11 91 1.6 1.6 0.00 0.00 0.00 55 1010.7
20260507141629 11 110 4.8 4.8 0.00 0.00 0.00 55 1010.7
20260507141127 11 92 3.2 4.8 0.00 0.00 0.00 56 1010.7
20260507140623 11 125 1.6 3.2 0.00 0.00 0.00 57 1010.7
20260507140120 11 159 1.6 1.6 0.00 0.00 0.00 54 1010.9
20260507135618 11 171 0.0 1.6 0.00 0.00 0.00 58 1011.2
20260507135115 11 112 0.0 0.0 0.00 0.00 0.00 57 1011.0
20260507134611 11 25 3.2 3.2 0.00 0.00 0.00 56 1011.2
20260507134107 11 81 0.0 0.0 0.00 0.00 0.00 55 1011.2
20260507133603 11 112 0.0 0.0 0.00 0.00 0.00 55 1011.2
20260507133101 11 98 1.6 3.2 0.00 0.00 0.00 57 1011.3
20260507132557 10 137 0.0 0.0 0.00 0.00 0.00 59 1011.3
20260507132054 10 58 3.2 3.2 0.00 0.00 0.00 55 1011.3
20260507131551 10 63 6.4 6.4 0.00 0.00 0.00 57 1011.3
20260507131049 10 231 3.2 4.8 0.00 0.00 0.00 57 1011.2
20260507130545 10 103 3.2 3.2 0.00 0.00 0.00 61 1011.3
20260507130043 10 115 1.6 1.6 0.00 0.00 0.00 60 1011.2
20260507125542 10 42 1.6 1.6 0.00 0.00 0.00 58 1011.2
20260507125039 10 44 1.6 3.2 0.00 0.00 0.00 58 1011.3
20260507124535 10 73 1.6 1.6 0.00 0.00 0.00 58 1011.2
20260507124033 10 144 1.6 1.6 0.00 0.00 0.00 57 1011.4
20260507123531 10 84 3.2 3.2 0.00 0.00 0.00 60 1011.3
20260507123027 10 107 3.2 4.8 0.00 0.00 0.00 60 1011.4
20260507122522 10 64 1.6 1.6 0.00 0.00 0.00 63 1011.4
20260507122019 10 79 1.6 1.6 0.00 0.00 0.00 65 1011.2
20260507121514 10 78 0.0 1.6 0.00 0.00 0.00 65 1011.3
20260507121010 10 80 0.0 0.0 0.00 0.00 0.00 67 1011.4
20260507120507 10 80 0.0 0.0 0.00 0.00 0.00 70 1011.5
20260507120004 10 80 0.0 0.0 0.00 0.00 0.00 73 1011.3
20260507115500 10 79 0.0 0.0 0.00 0.00 0.00 72 1011.1
20260507114955 10 93 0.0 1.6 0.00 0.00 0.00 71 1011.1
20260507114452 9 93 0.0 0.0 0.00 0.00 0.00 71 1011.1
20260507113949 9 93 0.0 0.0 0.00 0.00 0.00 74 1011.1
20260507113446 9 94 0.0 0.0 0.00 0.00 0.00 73 1011.1
20260507112943 9 89 0.0 0.0 0.00 0.00 0.00 73 1011.0
20260507112441 9 74 3.2 3.2 0.00 0.00 0.00 74 1010.7
20260507111938 9 92 1.6 1.6 0.00 0.00 0.00 76 1011.0
20260507111435 9 93 0.0 0.0 0.00 0.00 0.00 76 1010.8
20260507110931 9 93 1.6 1.6 0.00 0.00 0.00 76 1010.7
20260507110427 9 91 0.0 1.6 0.00 0.00 0.00 76 1010.7
20260507105924 10 93 0.0 0.0 0.00 0.00 0.00 77 1010.7
20260507105421 10 96 0.0 0.0 0.00 0.00 0.00 77 1010.8
20260507104918 10 127 0.0 0.0 0.00 0.00 0.00 78 1010.7
20260507104415 10 127 0.0 0.0 0.00 0.00 0.00 78 1010.8
20260507103910 10 127 0.0 1.6 0.00 0.00 0.00 79 1010.6
20260507103407 10 102 0.0 0.0 0.00 0.00 0.00 79 1010.5
20260507102903 10 102 0.0 0.0 0.00 0.00 0.00 77 1010.6
20260507102400 10 101 0.0 0.0 0.00 0.00 0.00 76 1010.3
20260507101857 10 144 0.0 0.0 0.00 0.00 0.00 77 1010.4
20260507101356 10 138 0.0 0.0 0.00 0.00 0.00 77 1010.2
20260507100854 10 137 1.6 1.6 0.00 0.00 0.00 80 1010.2
20260507100351 10 137 1.6 1.6 0.00 0.00 0.00 79 1010.2
20260507095849 10 131 1.6 1.6 0.00 0.00 0.00 80 1009.8
20260507095345 10 131 0.0 0.0 0.00 0.00 0.00 81 1010.2
20260507094843 10 130 0.0 0.0 0.00 0.00 0.00 82 1010.1
20260507094339 10 130 0.0 0.0 0.00 0.00 0.00 82 1010.2
20260507093837 10 142 1.6 1.6 0.00 0.00 0.00 82 1010.2
20260507093335 10 156 0.0 1.6 0.00 0.00 0.00 85 1010.2
20260507092832 10 157 1.6 1.6 0.00 0.00 0.00 85 1010.1
20260507092328 10 152 0.0 0.0 0.00 0.00 0.00 86 1009.8
20260507091825 10 147 1.6 1.6 0.00 0.00 0.00 85 1009.8
20260507091322 10 139 1.6 1.6 0.00 0.00 0.00 84 1009.8
20260507090817 10 139 1.6 1.6 0.00 0.00 0.00 84 1009.7
20260507090314 10 166 1.6 3.2 0.00 0.00 0.00 84 1010.1
20260507085811 10 158 0.0 1.6 0.00 0.00 0.00 84 1010.0
20260507085308 10 160 0.0 0.0 0.00 0.00 0.00 84 1010.0
20260507084805 10 160 0.0 1.6 0.00 0.00 0.00 85 1010.3
20260507084301 10 147 0.0 1.6 0.00 0.00 0.00 84 1010.0
20260507083759 10 126 0.0 1.6 0.00 0.00 0.00 84 1010.2
20260507083255 10 125 0.0 0.0 0.00 0.00 0.00 84 1009.8
20260507082751 10 158 1.6 1.6 0.00 0.00 0.00 84 1010.0
20260507082247 10 133 0.0 0.0 0.00 0.00 0.00 84 1010.0
20260507081744 10 133 0.0 0.0 0.00 0.00 0.00 83 1009.8
20260507081240 10 156 0.0 1.6 0.00 0.00 0.00 84 1010.1
20260507080737 10 156 0.0 0.0 0.00 0.00 0.00 84 1010.3
20260507080233 10 157 1.6 1.6 0.00 0.00 0.00 83 1009.8
20260507075729 10 156 0.0 0.0 0.00 0.00 0.00 85 1009.8
20260507075225 10 155 0.0 0.0 0.00 0.00 0.00 86 1009.7
20260507074721 10 156 0.0 0.0 0.00 0.00 0.00 84 1009.6
20260507074220 10 156 0.0 1.6 0.00 0.00 0.00 83 1009.5
20260507073716 10 159 0.0 0.0 0.00 0.00 0.00 83 1009.6
20260507073213 10 142 0.0 1.6 0.00 0.00 0.00 84 1009.4
20260507072711 10 142 1.6 1.6 0.00 0.00 0.00 84 1009.5
20260507072208 10 157 1.6 1.6 0.00 0.00 0.00 84 1009.5
20260507071705 10 157 1.6 1.6 0.00 0.00 0.00 84 1009.7
20260507071201 10 157 0.0 0.0 0.00 0.00 0.00 84 1009.6
20260507070659 10 157 0.0 0.0 0.00 0.00 0.00 85 1009.7
20260507070155 10 157 0.0 0.0 0.00 0.00 0.00 84 1009.6
20260507065652 10 157 0.0 0.0 0.00 0.00 0.00 84 1009.7
20260507065149 10 157 0.0 0.0 0.00 0.00 0.00 85 1009.8
20260507064646 10 157 0.0 0.0 0.00 0.00 0.00 86 1009.5
20260507064144 10 157 0.0 0.0 0.00 0.00 0.00 85 1009.8
20260507063642 10 157 0.0 0.0 0.00 0.00 0.00 85 1010.0
20260507063138 10 157 0.0 0.0 0.00 0.00 0.00 85 1010.0
20260507062635 10 157 0.0 0.0 0.00 0.00 0.00 85 1010.0
20260507062133 10 157 0.0 0.0 0.00 0.00 0.00 85 1010.1
20260507061631 10 157 0.0 0.0 0.00 0.00 0.00 84 1010.2
20260507061128 10 157 0.0 0.0 0.00 0.00 0.00 84 1010.2
20260507060626 10 157 0.0 0.0 0.00 0.00 0.00 84 1010.7
20260507060123 10 129 0.0 0.0 0.00 0.00 0.00 86 1010.6
20260507055618 10 128 0.0 0.0 0.00 0.00 0.00 85 1010.5
20260507055114 10 128 0.0 0.0 0.00 0.00 0.00 84 1010.5
20260507054610 10 156 0.0 0.0 0.00 0.00 0.00 86 1010.7
20260507054108 10 156 0.0 0.0 0.00 0.00 0.00 85 1010.4
20260507053605 10 228 3.2 3.2 0.00 0.00 0.00 84 1010.5
20260507053104 10 155 0.0 0.0 0.00 0.00 0.00 84 1010.4
20260507052601 10 155 1.6 1.6 0.00 0.00 0.00 85 1010.7
20260507052058 10 155 0.0 1.6 0.00 0.00 0.00 84 1010.4
20260507051555 10 151 0.0 0.0 0.00 0.00 0.00 85 1010.5
20260507051052 10 114 0.0 0.0 0.00 0.00 0.00 84 1010.2
20260507050549 11 137 0.0 0.0 0.00 0.00 0.00 84 1010.1
20260507050045 11 105 3.2 3.2 0.00 0.00 0.00 83 1010.0
20260507045542 11 118 0.0 0.0 0.00 0.00 0.00 83 1010.2
20260507045039 11 95 3.2 3.2 0.00 0.00 0.00 82 1010.1
20260507044536 11 64 0.0 0.0 0.00 0.00 0.00 84 1010.1
20260507044033 11 130 1.6 3.2 0.00 0.00 0.00 83 1010.3
20260507043528 11 133 1.6 1.6 0.00 0.00 0.00 84 1010.2
20260507043026 11 134 1.6 1.6 0.00 0.00 0.00 84 1010.3
20260507042522 11 100 3.2 3.2 0.00 0.00 0.00 84 1010.1
20260507042017 11 81 1.6 3.2 0.00 0.00 0.00 84 1010.3
20260507041515 11 157 1.6 1.6 0.00 0.00 0.00 86 1010.4
20260507041012 11 124 1.6 3.2 0.00 0.00 0.00 86 1009.6
20260507040508 11 19 0.0 0.0 0.00 0.00 0.00 86 1009.4
20260507040004 11 111 0.0 0.0 0.00 0.18 0.18 88 1010.0
20260507035500 11 129 1.6 1.6 0.00 0.18 0.18 88 1010.2
20260507034956 12 133 1.6 3.2 0.00 0.18 0.18 88 1010.6
20260507034453 12 136 3.2 3.2 0.00 0.18 0.18 88 1010.1
20260507033952 12 83 0.0 0.0 0.00 0.18 0.18 87 1010.1
20260507033449 12 132 0.0 0.0 0.00 0.18 0.18 87 1009.8
20260507032946 12 132 0.0 0.0 0.00 0.18 0.18 87 1009.8
20260507032443 12 93 0.0 0.0 0.00 0.18 0.18 86 1009.5
20260507031939 12 103 3.2 3.2 0.00 0.18 0.18 86 1009.6
20260507031436 12 88 1.6 3.2 0.00 0.18 0.18 86 1009.7
20260507030933 12 135 1.6 1.6 0.00 0.18 0.18 86 1010.2
20260507030430 12 147 0.0 1.6 0.00 0.18 0.18 87 1010.5
20260507025927 12 144 0.0 0.0 0.00 0.18 0.18 87 1010.0
20260507025424 12 65 0.0 0.0 0.00 0.18 0.18 85 1009.7
20260507024922 12 131 0.0 0.0 0.00 0.18 0.18 86 1009.6
20260507024419 12 161 0.0 0.0 0.00 0.18 0.18 86 1009.6
20260507023915 12 162 0.0 0.0 0.00 0.18 0.18 85 1009.6
20260507023412 12 164 1.6 1.6 0.00 0.18 0.18 85 1009.2
20260507022909 12 151 1.6 1.6 0.00 0.18 0.18 85 1009.6
20260507022406 12 147 0.0 0.0 0.00 0.18 0.18 85 1009.6
20260507021901 12 131 1.6 1.6 0.00 0.18 0.18 85 1009.5
20260507021357 12 83 3.2 3.2 0.00 0.18 0.18 86 1009.3
20260507020855 12 147 3.2 3.2 0.00 0.18 0.18 87 1009.4
20260507020351 13 163 1.6 1.6 0.00 0.18 0.18 86 1009.4
20260507015848 13 124 0.0 0.0 0.00 0.18 0.18 86 1009.4
20260507015346 13 138 0.0 0.0 0.00 0.18 0.18 86 1008.9
20260507014843 13 120 1.6 1.6 0.00 0.18 0.18 86 1009.3
20260507014339 13 173 1.6 1.6 0.00 0.18 0.18 86 1009.2
20260507013836 13 170 0.0 0.0 0.00 0.18 0.18 86 1008.9
20260507013333 13 171 0.0 0.0 0.00 0.18 0.18 86 1009.2
20260507012831 13 139 0.0 0.0 0.00 0.18 0.18 86 1009.0
20260507012326 13 124 0.0 1.6 0.00 0.18 0.18 86 1009.3
20260507011823 13 133 1.6 1.6 0.00 0.18 0.18 85 1009.3
20260507011320 13 110 1.6 1.6 0.00 0.18 0.18 85 1009.0
20260507010820 13 88 0.0 0.0 0.00 0.18 0.18 85 1008.6
20260507010315 13 153 0.0 0.0 0.00 0.18 0.18 85 1008.8
20260507005813 13 123 0.0 0.0 0.00 0.18 0.18 85 1009.0
20260507005309 13 91 0.0 0.0 0.00 0.18 0.18 86 1008.7
20260507004801 13 112 1.6 1.6 0.00 0.18 0.18 86 1008.6
20260507004258 13 140 0.0 0.0 0.00 0.18 0.18 86 1008.9
20260507003754 13 112 0.0 0.0 0.00 0.18 0.18 87 1008.9
20260507003250 13 153 1.6 1.6 0.00 0.18 0.18 86 1009.3
20260507002746 13 91 0.0 0.0 0.00 0.18 0.18 87 1009.4
20260507002242 14 117 0.0 1.6 0.00 0.18 0.18 88 1009.1
20260507001739 14 119 1.6 1.6 0.00 0.18 0.18 87 1008.7
20260507001236 14 113 0.0 1.6 0.00 0.18 0.18 87 1009.0
20260507000733 14 77 1.6 1.6 0.00 0.18 0.18 88 1008.8
20260507000228 15 125 3.2 3.2 0.00 0.18 0.18 88 1008.9
20260506235725 15 147 1.6 1.6 0.00 0.18 0.18 88 1009.1
20260506235221 15 118 0.0 0.0 0.00 0.18 0.18 89 1008.9
20260506234718 15 112 0.0 0.0 0.00 0.18 0.18 89 1008.9
20260506234215 15 92 1.6 1.6 0.00 0.18 0.18 88 1008.6
20260506233713 15 115 0.0 0.0 0.00 0.18 0.18 89 1008.6
20260506233209 15 73 1.6 1.6 0.00 0.18 0.18 88 1008.4
20260506232706 15 74 0.0 0.0 0.00 0.18 0.18 89 1008.6
20260506232200 15 101 0.0 1.6 0.00 0.18 0.18 89 1008.4
20260506231658 15 52 0.0 0.0 0.00 0.18 0.18 90 1008.4
20260506231157 15 89 0.0 0.0 0.00 0.18 0.18 90 1008.2
20260506230653 15 92 0.0 0.0 0.00 0.18 0.18 90 1008.1
20260506230150 15 147 1.6 1.6 0.00 0.18 0.18 91 1008.1
20260506225646 15 109 0.0 1.6 0.00 0.18 0.18 90 1007.8
20260506225143 16 121 1.6 1.6 0.00 0.18 0.18 90 1007.9
20260506224639 16 134 1.6 1.6 0.00 0.18 0.18 89 1007.8
20260506224136 16 131 1.6 1.6 0.00 0.18 0.18 87 1007.9
20260506223632 16 90 0.0 0.0 0.00 0.18 0.18 87 1007.5
20260506223128 16 203 3.2 3.2 0.00 0.18 0.18 86 1007.6
20260506222626 16 130 0.0 1.6 0.00 0.18 0.18 86 1007.7
20260506222122 17 166 1.6 1.6 0.00 0.18 0.18 86 1007.4
20260506221620 17 116 3.2 3.2 0.00 0.18 0.18 86 1007.1
20260506221118 17 90 0.0 0.0 0.00 0.18 0.18 87 1007.4
20260506220614 17 120 3.2 3.2 0.00 0.18 0.18 87 1007.4
20260506220109 17 84 0.0 0.0 0.00 0.18 0.18 87 1007.5
20260506215606 17 161 0.0 0.0 0.00 0.18 0.18 86 1007.6
20260506215101 17 147 1.6 3.2 0.00 0.18 0.18 85 1007.4
20260506214559 17 122 1.6 1.6 0.00 0.18 0.18 86 1006.9
20260506214056 18 150 0.0 0.0 0.00 0.18 0.18 84 1006.6
20260506213554 18 105 1.6 1.6 0.00 0.18 0.18 83 1006.7
20260506213051 18 121 1.6 1.6 0.00 0.18 0.18 83 1006.7
20260506212548 18 57 0.0 1.6 0.00 0.18 0.18 80 1006.6
20260506212043 18 98 3.2 3.2 0.00 0.18 0.18 82 1006.5